[[{"header":{"parameterUnit":"m.s-1","parameterCategory":1,"la1":30.2991,"la2":30.254,"lo1":-89.0895,"lo2":-89.0444,"dy":0.0017,"dx":0.0017,"nx":28,"ny":28,"refTime":"2025-05-17T03:00:00:Z","depth":0,"parameterNumber":2,"parameterNumberName":"U-component_of_WINDS"},"data":[0,0,0,0,0,0,0,0,0,0,0,0,0,0,0,0,0,0,0,0,0,0,0,0,0,0,0,0,0,0,0,0,0,0,0,0,0,0,0,0,0,0,0,0,0,0,0,0,0,0,0,0,0,0,0,0,0,0,-1.0569,-1.0568,0,-1.044,-1.0438,-1.0437,-1.0383,-1.0383,-1.0384,-1.0384,-1.025,-1.0246,-1.0243,0,0,0,0,0,0,0,0,0,0,0,0,0,-1.077,-1.0767,-1.057,-1.0568,-1.0566,-1.044,-1.0438,-1.0436,-1.0383,-1.0383,-1.0384,-1.0384,-1.0251,-1.0247,-1.0242,0,0,0,0,0,0,0,0,0,0,0,0,0,-1.0666,-1.0766,-1.057,-1.0524,-1.0519,-1.044,-1.0438,-1.0436,-1.0383,-1.0383,-1.0384,-1.0384,-1.0253,-1.0247,-1.0242,-1.0198,0,0,-1.0224,-1.0222,0,0,0,0,0,0,0,0,-1.0672,-1.0659,-1.0533,-1.0527,-1.0521,-1.0428,-1.046,-1.0356,-1.0383,-1.0435,-1.0384,-1.0384,-1.0309,-1.0299,-1.0273,-1.0192,-1.0186,-1.0224,-1.022,-1.0218,-1.0216,0,0,0,0,0,0,0,-1.0679,-1.0664,-1.0518,-1.0531,-1.0524,-1.051,-1.0496,-1.044,-1.0371,-1.043,-1.0426,-1.0411,-1.0306,-1.0279,-1.027,-1.0184,-1.0224,-1.0219,-1.0215,-1.0213,-1.006,-1.0059,0,0,0,0,0,0,-1.0694,-1.067,-1.0522,-1.0514,-1.0599,-1.0506,-1.049,-1.0458,-1.0371,-1.0359,-1.0411,-1.0409,-1.0289,-1.0276,-1.0265,-1.0207,-1.0218,-1.0212,-1.0209,-1.006,-1.0059,-1.0059,0,0,0,0,0,0,-1.0699,-1.0681,-1.0527,-1.0591,-1.057,-1.0503,-1.0466,-1.0455,-1.0428,-1.0357,-1.0344,-1.0396,-1.0288,-1.0273,-1.0215,-1.0202,-1.021,-1.0204,-1.0061,-1.006,-1.0059,-1.0093,0,0,0,0,0,0,-1.0705,-1.0683,-1.0666,-1.0591,-1.0567,-1.048,-1.0465,-1.0452,-1.0418,-1.0415,-1.034,-1.0328,-1.0287,-1.0224,-1.0209,-1.0194,-1.02,-1.0062,-1.0061,-1.0059,-1.0093,-1.0093,-1.0094,0,0,0,0,0,-1.0712,-1.0681,-1.0666,-1.0648,-1.0545,-1.048,-1.0466,-1.042,-1.0418,-1.04,-1.0354,-1.033,-1.0206,-1.0218,-1.0201,-1.0185,-1.0062,-1.0061,-1.0059,-1.0092,-1.0093,-1.0094,0,0,0,0,0,0,-1.0756,-1.067,-1.0652,-1.0596,-1.0546,-1.0471,-1.0447,-1.0423,-1.0372,-1.037,-1.0316,-1.0299,-1.0246,-1.0209,-1.0224,-1.0138,-1.0132,-1.0128,-1.0163,-1.0163,-1.0164,-1.0173,-1.0195,0,0,0,0,0,-1.0759,-1.0714,-1.0641,-1.0599,-1.0574,-1.0515,-1.0485,-1.0454,-1.04,-1.0378,-1.0328,-1.0276,-1.0225,-1.0192,-1.0141,-1.0088,-1.007,-1.0068,-1.0069,-1.0069,-1.0065,-1.0034,-1.0031,-1.0054,-1.0054,-1.0054,0,0,-1.0765,-1.0713,-1.0687,-1.0606,-1.0563,-1.0517,-1.0497,-1.0449,-1.0414,-1.037,-1.0312,-1.0274,-1.0212,-1.0156,-1.0129,-1.0124,-1.0055,-1.0068,-1.0069,-1.0064,-1.0032,-1.003,-1.0028,-1.0053,-1.0053,-1.0053,0,0,-1.0752,-1.0709,-1.0668,-1.0626,-1.0561,-1.0522,-1.0513,-1.0441,-1.0414,-1.0355,-1.0321,-1.0279,-1.0192,-1.0149,-1.0116,-1.0087,-1.0063,-1.0073,-1.0075,-1.0045,-1.0043,-1.0041,-1.003,-1.0027,-1.0069,-1.0069,-1.0069,0,-1.0768,-1.0697,-1.065,-1.0604,-1.0569,-1.0527,-1.0486,-1.0447,-1.0369,-1.0346,-1.0342,-1.0232,-1.0188,-1.0121,-1.0114,-1.0089,-1.0075,-1.008,-1.0047,-1.0045,-1.0042,-1.0031,-1.0027,-1.0071,-1.007,-1.007,-1.007,0,-1.0719,-1.0671,-1.0645,-1.0572,-1.0534,-1.049,-1.0436,-1.0404,-1.0377,-1.0338,-1.0278,-1.0224,-1.0161,-1.0143,-1.0116,-1.0072,-1.0071,-1.0058,-1.0051,-1.0042,-1.0031,-1.0026,-1.0073,-1.0072,-1.0072,-1.0071,0,0,-1.0729,-1.063,-1.0622,-1.0588,-1.0514,-1.0475,-1.043,-1.0369,-1.0341,-1.029,-1.0249,-1.0178,-1.0165,-1.0128,-1.0095,-1.0069,-1.0049,-1.0059,-1.0057,-1.0058,-0.9996,-1.0005,-1.0001,-1.0033,-1.0032,-1.0031,-1.0001,0,-1.0706,-1.0622,-1.0579,-1.0514,-1.0468,-1.0428,-1.0388,-1.0339,-1.0301,-1.0257,-1.0216,-1.0165,-1.0153,-1.013,-1.0103,-1.0057,-1.0035,-1.0059,-0.9994,-0.9993,-1.001,-0.9995,-1.0005,-0.9979,-0.9996,-0.9995,-0.9995,0,-1.0667,-1.0616,-1.0546,-1.0477,-1.0456,-1.0421,-1.0362,-1.032,-1.0263,-1.0237,-1.0196,-1.0164,-1.0114,-1.0112,-1.0042,-1.0059,-1.0031,-1.0005,-1.0002,-0.9993,-0.9992,-0.9985,-0.997,-0.9965,-0.9988,-0.9988,-0.9989,0,-1.068,-1.0594,-1.0541,-1.0513,-1.0432,-1.0408,-1.0373,-1.0316,-1.0282,-1.023,-1.0207,-1.015,-1.0119,-1.0075,-1.0029,-1.0032,-0.9963,-0.9957,-0.994,-0.9941,-0.9926,-0.9927,-0.9905,-0.991,-0.991,-0.991,-0.991,0,-1.0658,-1.0617,-1.0546,-1.0513,-1.0466,-1.0416,-1.037,-1.0332,-1.0282,-1.0241,-1.0204,-1.0166,-1.0108,-1.0062,-1.0026,-0.9973,-0.9959,-0.9937,-0.9928,-0.994,-0.9942,-0.9919,-0.9919,-0.9909,-0.9909,-0.9909,-0.9909,0,-1.0665,-1.0615,-1.0555,-1.0483,-1.0464,-1.0432,-1.037,-1.0337,-1.0298,-1.0246,-1.0232,-1.017,-1.0115,-1.0065,-0.9992,-0.9967,-0.9913,-0.9902,-0.9933,-0.9927,-0.9912,-0.9914,-0.9873,-0.9865,-0.9877,-0.9877,-0.9877,0,-1.0653,-1.062,-1.0545,-1.0515,-1.048,-1.0432,-1.0398,-1.0348,-1.0313,-1.0245,-1.022,-1.0162,-1.0113,-1.0027,-0.9976,-0.992,-0.9906,-0.9895,-0.9897,-0.991,-0.9904,-0.9907,-0.9903,-0.9896,-0.9896,-0.9896,-0.9896,0,-1.0637,-1.0615,-1.0566,-1.0509,-1.0468,-1.042,-1.0372,-1.0349,-1.029,-1.0253,-1.0196,-1.0158,-1.0084,-1.0027,-0.9965,-0.9928,-0.9902,-0.9896,-0.9889,-0.99,-0.9919,-0.9907,-0.9933,-0.9897,-0.9897,-0.9897,-0.9897,-0.9897,-1.0633,-1.0602,-1.0544,-1.0491,-1.0449,-1.0405,-1.037,-1.0326,-1.0278,-1.0214,-1.0187,-1.013,-1.0073,-0.9987,-0.9951,-0.9905,-0.9899,-0.9889,-0.9886,-0.9884,-0.9886,-0.9928,-0.9894,-0.9893,-0.9893,-0.9893,-0.9893,0,-1.0615,-1.0576,-1.0527,-1.046,-1.0419,-1.0398,-1.0343,-1.0309,-1.0259,-1.0209,-1.0161,-1.0096,-1.0041,-0.9986,-0.9927,-0.9901,-0.9887,-0.9887,-0.9888,-0.9879,-0.9895,-0.9906,-0.9899,-0.9899,-0.9899,-0.9899,-0.9899,-0.9899,-1.06,-1.0546,-1.0517,-1.0442,-1.0403,-1.0346,-1.0316,-1.0275,-1.0234,-1.0163,-1.0117,-1.0081,-1.0028,-0.9966,-0.9914,-0.9899,-0.9879,-0.9882,-0.9863,-0.9878,-0.9878,-0.9878,-0.9889,-0.9878,-0.9878,-0.9851,-0.9851,-0.9851]},{"header":{"parameterUnit":"m.s-1","parameterCategory":1,"la1":30.2991,"la2":30.254,"lo1":-89.0895,"lo2":-89.0444,"dy":0.0017,"dx":0.0017,"nx":28,"ny":28,"refTime":"2025-05-17T03:00:00:Z","depth":0,"parameterNumber":3,"parameterNumberName":"V-component_of_WINDS"},"data":[0,0,0,0,0,0,0,0,0,0,0,0,0,0,0,0,0,0,0,0,0,0,0,0,0,0,0,0,0,0,0,0,0,0,0,0,0,0,0,0,0,0,0,0,0,0,0,0,0,0,0,0,0,0,0,0,0,0,3.6573,3.6573,0,3.66,3.66,3.66,3.6562,3.656,3.6559,3.6558,3.6583,3.6585,3.6587,0,0,0,0,0,0,0,0,0,0,0,0,0,3.6487,3.6489,3.6573,3.6573,3.6574,3.66,3.66,3.66,3.6562,3.656,3.6559,3.6557,3.6583,3.6585,3.6587,0,0,0,0,0,0,0,0,0,0,0,0,0,3.652,3.649,3.6573,3.6558,3.6557,3.66,3.66,3.6601,3.6562,3.656,3.6558,3.6556,3.6582,3.6585,3.6588,3.6646,0,0,3.6596,3.6598,0,0,0,0,0,0,0,0,3.6518,3.6523,3.656,3.6559,3.6558,3.6575,3.6579,3.6616,3.6563,3.656,3.6558,3.6555,3.6582,3.6585,3.6594,3.6648,3.6649,3.6597,3.6598,3.66,3.6601,0,0,0,0,0,0,0,3.6516,3.6522,3.6583,3.656,3.6559,3.6549,3.6552,3.6586,3.6582,3.656,3.6557,3.6561,3.6581,3.6592,3.6595,3.6649,3.6597,3.6599,3.6601,3.6602,3.6753,3.6756,0,0,0,0,0,0,3.6516,3.652,3.6583,3.6584,3.6533,3.6552,3.6555,3.6572,3.6582,3.6581,3.6563,3.6559,3.6588,3.6591,3.6595,3.6666,3.66,3.6602,3.6604,3.6751,3.6754,3.6756,0,0,0,0,0,0,3.6514,3.6522,3.6582,3.6552,3.6559,3.6556,3.6575,3.6573,3.6584,3.6584,3.6583,3.6574,3.6586,3.6591,3.6634,3.6666,3.6604,3.6606,3.6749,3.6752,3.6755,3.6808,0,0,0,0,0,0,3.6512,3.6522,3.6544,3.6553,3.656,3.6621,3.6577,3.6575,3.6589,3.6585,3.6594,3.6594,3.6585,3.663,3.6637,3.6669,3.6609,3.6746,3.675,3.6754,3.6803,3.6812,3.682,0,0,0,0,0,3.6509,3.6557,3.6545,3.6553,3.6588,3.6623,3.6627,3.6616,3.6592,3.6614,3.6615,3.6594,3.6662,3.6635,3.6643,3.6676,3.6744,3.6749,3.6754,3.6799,3.681,3.682,0,0,0,0,0,0,3.6551,3.6558,3.6545,3.6597,3.661,3.6616,3.6644,3.6628,3.6648,3.6643,3.6628,3.663,3.6677,3.6681,3.6651,3.6734,3.6699,3.6705,3.673,3.6741,3.675,3.6748,3.6611,0,0,0,0,0,3.6566,3.6594,3.6598,3.6644,3.6651,3.6647,3.6661,3.6652,3.6664,3.6669,3.6672,3.6685,3.6709,3.6725,3.6747,3.6803,3.6805,3.683,3.6839,3.6846,3.6852,3.6883,3.6895,3.6773,3.6773,3.6773,0,0,3.6598,3.6605,3.6623,3.6652,3.6661,3.669,3.6651,3.6683,3.6704,3.6673,3.6715,3.6718,3.6731,3.6781,3.6803,3.6786,3.6886,3.6852,3.6858,3.686,3.689,3.6901,3.6912,3.6777,3.6776,3.6775,0,0,3.6671,3.6679,3.6719,3.6729,3.6743,3.674,3.675,3.6759,3.676,3.6802,3.678,3.6805,3.6847,3.6857,3.6868,3.6947,3.6929,3.6955,3.7,3.7031,3.7041,3.7049,3.7078,3.7089,3.6961,3.6961,3.6961,0,3.6709,3.6752,3.6741,3.6775,3.6789,3.6763,3.6804,3.6813,3.6834,3.6844,3.6824,3.6877,3.6884,3.6937,3.6957,3.6966,3.6977,3.6954,3.704,3.7049,3.7056,3.7084,3.7095,3.6964,3.6964,3.6963,3.6963,0,3.6799,3.6829,3.6859,3.6881,3.6898,3.6935,3.6929,3.6948,3.6938,3.6937,3.698,3.6988,3.7012,3.7024,3.7013,3.7076,3.7065,3.7043,3.7006,3.7071,3.7097,3.7108,3.6969,3.6967,3.6966,3.6966,0,0,3.6898,3.6915,3.6926,3.6937,3.6951,3.6974,3.701,3.7035,3.7052,3.7067,3.7097,3.7134,3.7115,3.7127,3.7117,3.7144,3.7208,3.7119,3.7119,3.7137,3.7279,3.7297,3.7309,3.7196,3.7198,3.72,3.7279,0,3.6973,3.7036,3.7027,3.7088,3.7117,3.7094,3.7125,3.7138,3.7138,3.7162,3.7162,3.719,3.7161,3.7168,3.7194,3.7195,3.7237,3.7189,3.7225,3.7226,3.7223,3.7323,3.734,3.7415,3.7289,3.729,3.7292,0,3.7067,3.7088,3.7152,3.7164,3.7175,3.7204,3.7227,3.725,3.7264,3.7262,3.7277,3.7264,3.73,3.7263,3.7313,3.7281,3.7295,3.7298,3.7301,3.7304,3.7263,3.733,3.7438,3.745,3.7307,3.7306,3.7305,0,3.7136,3.7179,3.7223,3.7233,3.7247,3.7268,3.7275,3.7287,3.7303,3.7322,3.7332,3.7356,3.7368,3.7387,3.738,3.7353,3.7432,3.7394,3.7432,3.7433,3.745,3.745,3.7564,3.7458,3.7458,3.7458,3.7457,0,3.722,3.726,3.7254,3.7282,3.7327,3.7316,3.7361,3.7365,3.7376,3.7404,3.7384,3.7411,3.74,3.7426,3.742,3.7464,3.7469,3.7469,3.7468,3.7472,3.7472,3.7481,3.7476,3.7461,3.746,3.7459,3.7459,0,3.7304,3.7301,3.7348,3.7359,3.7362,3.7395,3.7404,3.743,3.7429,3.7465,3.7472,3.7472,3.7501,3.7496,3.7528,3.7525,3.7579,3.7571,3.7575,3.7574,3.7613,3.7609,3.7737,3.7754,3.7637,3.7638,3.7639,0,3.7358,3.7389,3.7403,3.7421,3.743,3.7459,3.7475,3.7466,3.7484,3.7503,3.7527,3.7555,3.7577,3.7626,3.7628,3.7653,3.7645,3.7688,3.7649,3.7652,3.7647,3.7646,3.765,3.7696,3.7697,3.7699,3.7699,0,3.7456,3.7453,3.7478,3.7504,3.7524,3.7543,3.756,3.7576,3.7569,3.759,3.7621,3.7638,3.7672,3.77,3.7724,3.773,3.7714,3.7712,3.7722,3.7727,3.7729,3.773,3.7598,3.7709,3.7708,3.7707,3.7707,3.7706,3.7527,3.7554,3.7569,3.7598,3.761,3.7627,3.7653,3.7656,3.7682,3.7709,3.7702,3.7737,3.7751,3.7782,3.7791,3.7818,3.7802,3.7817,3.7821,3.7825,3.783,3.7724,3.7822,3.7822,3.7822,3.7822,3.7821,0,3.7625,3.7634,3.766,3.7686,3.7709,3.7692,3.7711,3.7731,3.7763,3.7777,3.78,3.7836,3.7864,3.7869,3.7895,3.7916,3.7909,3.7923,3.7922,3.7924,3.7842,3.7831,3.7929,3.7929,3.7929,3.7929,3.7928,3.7928,3.7678,3.7724,3.7724,3.7775,3.7783,3.7818,3.7831,3.7846,3.7858,3.79,3.7923,3.7926,3.7938,3.7965,3.799,3.7991,3.8002,3.8019,3.8017,3.7941,3.793,3.792,3.7909,3.8021,3.8021,3.8097,3.8098,3.8098]}]]